This demonstration page uses our WeatherBlox Daily Observations layout. Learn more.

Left ArrowRight Arrow

Hourly Observations for January 19, 2021

Temp ( °F °C ) Dew Point ( °F °C ) Humidity (%) Winds ( mph kmh ) Pressure ( in mb ) Visibility ( mi km ) Precip ( " mm )
12:53 am 00:53 Mostly Clear 27 -2.8 20 -6.7 75 75 SW 13 20 30.45 1031 10 16 0.00 0.00
1:53 am 01:53 Clear 24 -4.4 18 -7.8 77 77 SW 13 20 30.44 1031 10 16 0.00 0.00
2:53 am 02:53 Clear 22 -5.6 17 -8.3 82 82 SW 9 15 30.46 1031 10 16 0.00 0.00
3:53 am 03:53 Clear 22 -5.6 17 -8.3 82 82 SW 13 20 30.44 1031 10 16 0.00 0.00
4:53 am 04:53 Clear 22 -5.6 16 -8.9 78 78 SW 15 24 30.43 1030 10 16 0.00 0.00
5:53 am 05:53 Clear 23 -5 17 -8.3 78 78 SW 16 26 30.41 1030 10 16 0.00 0.00
6:53 am 06:53 Clear 22 -5.6 16 -8.9 78 78 SW 17 28 30.39 1029 10 16 0.00 0.00
7:53 am 07:53 Clear 22 -5.6 16 -8.9 78 78 SW 16 26 30.37 1029 10 16 0.00 0.00
8:53 am 08:53 Sunny 27 -2.8 18 -7.8 69 69 SW 25 41 30.33 1027 10 16 0.00 0.00
9:53 am 09:53 Sunny 30 -1.1 19 -7.2 64 64 SW 26 43 30.30 1026 10 16 0.00 0.00
10:53 am 10:53 Sunny 34 1.1 20 -6.7 56 56 SW 31 50 30.23 1024 10 16 0.00 0.00
11:53 am 11:53 Sunny 37 2.8 21 -6.1 52 52 SW 24 39 30.18 1022 10 16 0.00 0.00
12:53 pm 12:53 Sunny 42 5.6 19 -7.2 40 40 SW 30 48 30.09 1019 10 16 0.00 0.00
1:53 pm 13:53 Sunny 44 6.7 18 -7.8 35 35 WSW 32 52 30.02 1017 10 16 0.00 0.00
2:53 pm 14:53 Sunny 44 6.7 16 -8.9 32 32 SW 30 48 29.98 1015 10 16 0.00 0.00
3:53 pm 15:53 Sunny 43 6.1 16 -8.9 34 34 SW 28 44 29.92 1013 10 16 0.00 0.00
4:53 pm 16:53 Sunny 42 5.6 14 -10 32 32 SW 31 50 29.88 1012 10 16 0.00 0.00
5:53 pm 17:53 Clear 41 5 13 -10.6 32 32 SW 30 48 29.84 1011 10 16 0.00 0.00
6:53 pm 18:53 Clear 42 5.6 12 -11.1 29 29 SW 35 56 29.80 1009 10 16 0.00 0.00
7:53 pm 19:53 Clear 41 5 11 -11.7 29 29 SW 31 50 29.78 1009 10 16 0.00 0.00
8:53 pm 20:53 Clear 41 5 10 -12.2 28 28 SW 35 56 29.73 1007 10 16 0.00 0.00
9:53 pm 21:53 Clear 42 5.6 9 -12.8 25 25 SW 36 57 29.72 1007 10 16 0.00 0.00
10:53 pm 22:53 Clear 43 6.1 10 -12.2 26 26 WSW 29 46 29.75 1007 10 16 0.00 0.00
11:53 pm 23:53 Clear 45 7.2 15 -9.4 30 30 SSW 23 37 29.74 1007 10 16 0.00 0.00

Powered by AerisWeather